Time,TemperatureF,DewpointF,PressureIn,WindDirection,WindDirectionDegrees,WindSpeedMPH,WindSpeedGustMPH,Humidity,HourlyPrecipIn,Conditions,Clouds,dailyrainin,SoftwareType,DateUTC
2013-10-19 00:00:00,35.1,23.0,28.61,West,270,3.4,4.9,61,0.00,,,0.00,VWS V14.01,2013-10-19 05:00:00,
2013-10-19 00:05:00,35.1,23.4,28.61,West,270,3.4,4.9,62,0.00,,,0.00,VWS V14.01,2013-10-19 05:05:00,
2013-10-19 00:10:00,35.4,25.2,28.61,WNW,292,4.0,6.3,66,0.00,,,0.00,VWS V14.01,2013-10-19 05:10:00,
2013-10-19 00:15:00,35.6,25.4,28.61,WSW,248,4.0,6.0,66,0.00,,,0.00,VWS V14.01,2013-10-19 05:15:00,
2013-10-19 00:20:00,35.4,24.8,28.61,WSW,248,4.0,5.6,65,0.00,,,0.00,VWS V14.01,2013-10-19 05:20:00,
2013-10-19 00:25:00,35.4,25.2,28.61,WSW,248,4.9,6.0,66,0.00,,,0.00,VWS V14.01,2013-10-19 05:25:00,
2013-10-19 00:30:00,35.4,25.6,28.61,WNW,292,3.4,5.4,67,0.00,,,0.00,VWS V14.01,2013-10-19 05:30:00,
2013-10-19 00:35:00,35.4,25.6,28.61,WSW,248,4.9,5.6,67,0.00,,,0.00,VWS V14.01,2013-10-19 05:35:00,
2013-10-19 00:40:00,35.1,24.9,28.61,WSW,248,3.6,5.8,66,0.00,,,0.00,VWS V14.01,2013-10-19 05:40:00,
2013-10-19 00:45:00,34.5,24.0,28.61,WNW,292,3.1,4.9,65,0.00,,,0.00,VWS V14.01,2013-10-19 05:45:00,
2013-10-19 00:50:00,34.3,24.5,28.61,WNW,292,3.6,4.3,67,0.00,,,0.00,VWS V14.01,2013-10-19 05:50:00,
2013-10-19 00:55:00,34.3,25.2,28.61,WSW,248,4.3,4.9,69,0.00,,,0.00,VWS V14.01,2013-10-19 05:55:00,
2013-10-19 01:00:00,34.2,25.4,28.61,West,270,5.8,5.8,70,0.00,,,0.00,VWS V14.01,2013-10-19 06:00:00,
2013-10-19 01:05:00,34.3,26.3,28.61,WSW,248,3.8,5.8,72,0.00,,,0.00,VWS V14.01,2013-10-19 06:05:00,
2013-10-19 01:10:00,34.5,27.1,28.61,WSW,248,3.8,5.8,74,0.00,,,0.00,VWS V14.01,2013-10-19 06:10:00,
2013-10-19 01:15:00,34.3,26.9,28.61,WSW,248,3.6,5.4,74,0.00,,,0.00,VWS V14.01,2013-10-19 06:15:00,
2013-10-19 01:20:00,34.0,26.2,28.61,WSW,248,5.4,5.4,73,0.00,,,0.00,VWS V14.01,2013-10-19 06:20:00,
2013-10-19 01:25:00,33.8,25.7,28.61,WSW,248,4.3,5.4,72,0.00,,,0.00,VWS V14.01,2013-10-19 06:25:00,
2013-10-19 01:30:00,34.0,26.6,28.61,WSW,248,5.4,5.4,74,0.00,,,0.00,VWS V14.01,2013-10-19 06:30:00,
2013-10-19 01:35:00,34.5,28.1,28.61,WNW,292,4.0,6.5,77,0.00,,,0.00,VWS V14.01,2013-10-19 06:35:00,
2013-10-19 01:40:00,34.7,28.5,28.61,WNW,292,4.0,6.0,78,0.00,,,0.00,VWS V14.01,2013-10-19 06:40:00,
2013-10-19 01:45:00,34.5,27.8,28.61,WSW,248,3.6,5.8,76,0.00,,,0.00,VWS V14.01,2013-10-19 06:45:00,
2013-10-19 01:50:00,34.2,26.8,28.58,WSW,248,3.6,4.5,74,0.00,,,0.00,VWS V14.01,2013-10-19 06:50:00,
2013-10-19 01:55:00,33.8,25.7,28.58,WNW,292,4.0,4.5,72,0.00,,,0.00,VWS V14.01,2013-10-19 06:55:00,
2013-10-19 02:00:00,33.6,25.6,28.58,WSW,248,3.6,4.9,72,0.00,,,0.00,VWS V14.01,2013-10-19 07:00:00,
2013-10-19 02:05:00,33.8,26.7,28.58,WSW,248,6.0,6.0,75,0.00,,,0.00,VWS V14.01,2013-10-19 07:05:00,
2013-10-19 02:10:00,34.0,27.5,28.58,WSW,248,4.9,6.0,77,0.00,,,0.00,VWS V14.01,2013-10-19 07:10:00,
2013-10-19 02:15:00,34.2,28.0,28.58,SW,225,5.6,6.5,78,0.00,,,0.00,VWS V14.01,2013-10-19 07:15:00,
2013-10-19 02:20:00,34.3,28.2,28.58,WSW,248,6.3,7.4,78,0.00,,,0.00,VWS V14.01,2013-10-19 07:20:00,
2013-10-19 02:25:00,34.5,28.4,28.58,WSW,248,6.3,6.3,78,0.00,,,0.00,VWS V14.01,2013-10-19 07:25:00,
2013-10-19 02:30:00,34.5,28.1,28.58,WSW,248,4.5,7.4,77,0.00,,,0.00,VWS V14.01,2013-10-19 07:30:00,
2013-10-19 02:35:00,34.3,27.2,28.58,WSW,248,3.8,6.0,75,0.00,,,0.00,VWS V14.01,2013-10-19 07:35:00,
2013-10-19 02:40:00,34.2,27.1,28.58,WSW,248,4.0,7.6,75,0.00,,,0.00,VWS V14.01,2013-10-19 07:40:00,
2013-10-19 02:45:00,34.0,26.9,28.58,WSW,248,4.9,5.6,75,0.00,,,0.00,VWS V14.01,2013-10-19 07:45:00,
2013-10-19 02:50:00,34.3,27.6,28.58,West,270,5.8,6.3,76,0.00,,,0.00,VWS V14.01,2013-10-19 07:50:00,
2013-10-19 02:55:00,34.5,28.7,28.58,WSW,248,7.6,8.1,79,0.00,,,0.00,VWS V14.01,2013-10-19 07:55:00,
2013-10-19 03:00:00,34.9,29.0,28.58,WSW,248,5.8,8.5,79,0.00,,,0.00,VWS V14.01,2013-10-19 08:00:00,
2013-10-19 03:05:00,34.7,28.5,28.58,WSW,248,5.6,8.1,78,0.00,,,0.00,VWS V14.01,2013-10-19 08:05:00,
2013-10-19 03:10:00,34.5,28.1,28.58,WSW,248,6.0,7.4,77,0.00,,,0.00,VWS V14.01,2013-10-19 08:10:00,
2013-10-19 03:15:00,34.5,27.8,28.58,WSW,248,4.9,8.1,76,0.00,,,0.00,VWS V14.01,2013-10-19 08:15:00,
2013-10-19 03:20:00,34.3,27.2,28.58,WSW,248,5.6,6.0,75,0.00,,,0.00,VWS V14.01,2013-10-19 08:20:00,
2013-10-19 03:25:00,34.0,26.9,28.58,WNW,292,3.8,6.3,75,0.00,,,0.00,VWS V14.01,2013-10-19 08:25:00,
2013-10-19 03:30:00,34.2,27.4,28.58,WSW,248,5.6,7.4,76,0.00,,,0.00,VWS V14.01,2013-10-19 08:30:00,
2013-10-19 03:35:00,34.3,28.2,28.55,West,270,6.3,7.4,78,0.00,,,0.00,VWS V14.01,2013-10-19 08:35:00,
2013-10-19 03:40:00,34.3,28.2,28.55,WSW,248,6.0,7.6,78,0.00,,,0.00,VWS V14.01,2013-10-19 08:40:00,
2013-10-19 03:45:00,34.2,27.4,28.55,West,270,5.4,6.3,76,0.00,,,0.00,VWS V14.01,2013-10-19 08:45:00,
2013-10-19 03:50:00,34.0,26.9,28.55,West,270,5.6,6.3,75,0.00,,,0.00,VWS V14.01,2013-10-19 08:50:00,
2013-10-19 03:55:00,33.6,26.6,28.55,WSW,248,4.0,7.2,75,0.00,,,0.00,VWS V14.01,2013-10-19 08:55:00,
2013-10-19 04:00:00,33.3,26.2,28.55,WSW,248,4.0,4.7,75,0.00,,,0.00,VWS V14.01,2013-10-19 09:00:00,
2013-10-19 04:05:00,33.1,26.0,28.55,WSW,248,3.8,4.5,75,0.00,,,0.00,VWS V14.01,2013-10-19 09:05:00,
2013-10-19 04:10:00,32.7,25.7,28.55,SW,225,4.3,4.3,75,0.00,,,0.00,VWS V14.01,2013-10-19 09:10:00,
2013-10-19 04:15:00,32.9,26.5,28.55,WSW,248,3.6,6.3,77,0.00,,,0.00,VWS V14.01,2013-10-19 09:15:00,
2013-10-19 04:20:00,33.1,27.3,28.55,WSW,248,5.6,6.3,79,0.00,,,0.00,VWS V14.01,2013-10-19 09:20:00,
2013-10-19 04:25:00,33.3,27.8,28.55,WSW,248,4.0,7.2,80,0.00,,,0.00,VWS V14.01,2013-10-19 09:25:00,
2013-10-19 04:30:00,33.1,27.6,28.55,SW,225,3.1,6.0,80,0.00,,,0.00,VWS V14.01,2013-10-19 09:30:00,
2013-10-19 04:35:00,32.9,27.1,28.55,SW,225,5.4,6.5,79,0.00,,,0.00,VWS V14.01,2013-10-19 09:35:00,
2013-10-19 04:40:00,32.7,26.6,28.55,SW,225,5.6,5.8,78,0.00,,,0.00,VWS V14.01,2013-10-19 09:40:00,
2013-10-19 04:45:00,32.7,26.9,28.55,WSW,248,4.3,6.5,79,0.00,,,0.00,VWS V14.01,2013-10-19 09:45:00,
2013-10-19 04:50:00,32.5,26.5,28.55,SW,225,4.0,5.6,78,0.00,,,0.00,VWS V14.01,2013-10-19 09:50:00,
2013-10-19 04:55:00,32.4,26.3,28.55,West,270,4.3,5.4,78,0.00,,,0.00,VWS V14.01,2013-10-19 09:55:00,
2013-10-19 05:00:00,32.4,26.6,28.55,SW,225,4.3,6.0,79,0.00,,,0.00,VWS V14.01,2013-10-19 10:00:00,
2013-10-19 05:05:00,32.4,26.6,28.55,WSW,248,5.8,6.3,79,0.00,,,0.00,VWS V14.01,2013-10-19 10:05:00,
2013-10-19 05:10:00,32.4,26.9,28.55,SW,225,5.6,6.0,80,0.00,,,0.00,VWS V14.01,2013-10-19 10:10:00,
2013-10-19 05:15:00,32.5,27.4,28.55,SW,225,6.3,8.5,81,0.00,,,0.00,VWS V14.01,2013-10-19 10:15:00,
2013-10-19 05:20:00,32.7,28.1,28.55,WSW,248,7.4,8.5,83,0.00,,,0.00,VWS V14.01,2013-10-19 10:20:00,
2013-10-19 05:25:00,32.9,28.6,28.55,WSW,248,5.4,8.7,84,0.00,,,0.00,VWS V14.01,2013-10-19 10:25:00,
2013-10-19 05:30:00,32.7,27.8,28.55,WSW,248,4.3,6.5,82,0.00,,,0.00,VWS V14.01,2013-10-19 10:30:00,
2013-10-19 05:35:00,32.7,27.5,28.52,WSW,248,6.0,7.4,81,0.00,,,0.00,VWS V14.01,2013-10-19 10:35:00,
2013-10-19 05:40:00,32.5,27.1,28.52,SW,225,5.6,7.6,80,0.00,,,0.00,VWS V14.01,2013-10-19 10:40:00,
2013-10-19 05:45:00,32.5,26.8,28.52,SW,225,4.7,6.5,79,0.00,,,0.00,VWS V14.01,2013-10-19 10:45:00,
2013-10-19 05:50:00,32.4,26.6,28.55,WSW,248,4.5,5.6,79,0.00,,,0.00,VWS V14.01,2013-10-19 10:50:00,
2013-10-19 05:55:00,32.4,26.6,28.55,WSW,248,3.6,6.3,79,0.00,,,0.00,VWS V14.01,2013-10-19 10:55:00,
2013-10-19 06:00:00,32.2,26.4,28.55,SW,225,5.8,6.0,79,0.00,,,0.00,VWS V14.01,2013-10-19 11:00:00,
2013-10-19 06:05:00,32.0,25.9,28.52,SW,225,4.3,5.8,78,0.00,,,0.00,VWS V14.01,2013-10-19 11:05:00,
2013-10-19 06:10:00,31.6,25.3,28.52,SW,225,4.9,8.5,77,0.00,,,0.00,VWS V14.01,2013-10-19 11:10:00,
2013-10-19 06:15:00,31.8,25.8,28.52,SW,225,3.6,7.6,78,0.00,,,0.00,VWS V14.01,2013-10-19 11:15:00,
2013-10-19 06:20:00,32.0,26.2,28.52,SW,225,4.5,6.5,79,0.00,,,0.00,VWS V14.01,2013-10-19 11:20:00,
2013-10-19 06:25:00,32.0,26.2,28.52,WSW,248,6.0,6.0,79,0.00,,,0.00,VWS V14.01,2013-10-19 11:25:00,
2013-10-19 06:30:00,32.2,26.7,28.52,SSW,202,4.3,7.4,80,0.00,,,0.00,VWS V14.01,2013-10-19 11:30:00,
2013-10-19 06:35:00,32.2,27.0,28.52,SW,225,5.6,7.6,81,0.00,,,0.00,VWS V14.01,2013-10-19 11:35:00,
2013-10-19 06:40:00,32.4,27.5,28.52,SSW,202,5.4,8.1,82,0.00,,,0.00,VWS V14.01,2013-10-19 11:40:00,
2013-10-19 06:45:00,32.4,27.2,28.52,SSW,202,6.5,8.1,81,0.00,,,0.00,VWS V14.01,2013-10-19 11:45:00,
2013-10-19 06:50:00,32.4,27.2,28.52,SSW,202,5.6,7.6,81,0.00,,,0.00,VWS V14.01,2013-10-19 11:50:00,
2013-10-19 06:55:00,32.5,27.1,28.52,SSW,202,7.8,8.1,80,0.00,,,0.00,VWS V14.01,2013-10-19 11:55:00,
2013-10-19 07:00:00,32.7,27.8,28.52,SW,225,7.8,10.7,82,0.00,,,0.00,VWS V14.01,2013-10-19 12:00:00,
2013-10-19 07:05:00,32.5,27.1,28.52,SW,225,7.8,8.7,80,0.00,,,0.00,VWS V14.01,2013-10-19 12:05:00,
2013-10-19 07:10:00,32.5,26.8,28.52,SW,225,5.6,10.5,79,0.00,,,0.00,VWS V14.01,2013-10-19 12:10:00,
2013-10-19 07:15:00,32.4,26.3,28.52,SW,225,5.4,6.7,78,0.00,,,0.00,VWS V14.01,2013-10-19 12:15:00,
2013-10-19 07:20:00,32.5,26.8,28.52,WSW,248,10.1,10.1,79,0.00,,,0.00,VWS V14.01,2013-10-19 12:20:00,
2013-10-19 07:25:00,32.9,27.4,28.52,WSW,248,4.9,10.1,80,0.00,,,0.00,VWS V14.01,2013-10-19 12:25:00,
2013-10-19 07:30:00,33.1,27.9,28.52,SW,225,6.5,8.5,81,0.00,,,0.00,VWS V14.01,2013-10-19 12:30:00,
2013-10-19 07:35:00,33.1,27.9,28.52,SW,225,7.6,9.6,81,0.00,,,0.00,VWS V14.01,2013-10-19 12:35:00,
2013-10-19 07:40:00,33.3,27.8,28.52,WSW,248,7.6,10.1,80,0.00,,,0.00,VWS V14.01,2013-10-19 12:40:00,
2013-10-19 07:45:00,33.6,27.8,28.52,WSW,248,7.6,10.7,79,0.00,,,0.00,VWS V14.01,2013-10-19 12:45:00,
2013-10-19 07:50:00,34.0,27.9,28.52,SW,225,7.6,9.8,78,0.00,,,0.00,VWS V14.01,2013-10-19 12:50:00,
2013-10-19 07:55:00,34.2,27.7,28.52,WSW,248,9.4,10.5,77,0.00,,,0.00,VWS V14.01,2013-10-19 12:55:00,
2013-10-19 08:00:00,34.5,27.8,28.52,SW,225,5.8,10.1,76,0.00,,,0.00,VWS V14.01,2013-10-19 13:00:00,
2013-10-19 08:05:00,34.9,27.5,28.52,WSW,248,7.6,12.1,74,0.00,,,0.00,VWS V14.01,2013-10-19 13:05:00,
2013-10-19 08:10:00,35.1,27.3,28.52,WSW,248,8.7,12.3,73,0.00,,,0.00,VWS V14.01,2013-10-19 13:10:00,
2013-10-19 08:15:00,35.4,27.6,28.52,WSW,248,7.6,10.1,73,0.00,,,0.00,VWS V14.01,2013-10-19 13:15:00,
2013-10-19 08:20:00,35.8,27.3,28.52,WSW,248,6.7,10.7,71,0.00,,,0.00,VWS V14.01,2013-10-19 13:20:00,
2013-10-19 08:25:00,36.0,27.1,28.52,WSW,248,10.5,10.7,70,0.00,,,0.00,VWS V14.01,2013-10-19 13:25:00,
2013-10-19 08:30:00,36.1,27.3,28.52,WSW,248,4.3,10.5,70,0.00,,,0.00,VWS V14.01,2013-10-19 13:30:00,
2013-10-19 08:35:00,36.3,27.5,28.52,SW,225,5.8,9.4,70,0.00,,,0.00,VWS V14.01,2013-10-19 13:35:00,
2013-10-19 08:40:00,36.7,27.5,28.52,SW,225,6.7,8.7,69,0.00,,,0.00,VWS V14.01,2013-10-19 13:40:00,
2013-10-19 08:45:00,36.9,27.7,28.52,WSW,248,6.5,9.2,69,0.00,,,0.00,VWS V14.01,2013-10-19 13:45:00,
2013-10-19 08:50:00,37.0,27.5,28.52,WSW,248,8.5,10.7,68,0.00,,,0.00,VWS V14.01,2013-10-19 13:50:00,
2013-10-19 08:55:00,37.2,27.3,28.52,WSW,248,8.5,8.7,67,0.00,,,0.00,VWS V14.01,2013-10-19 13:55:00,
2013-10-19 09:00:00,37.6,26.9,28.52,WSW,248,5.8,11.0,65,0.00,,,0.00,VWS V14.01,2013-10-19 14:00:00,
2013-10-19 09:05:00,37.9,27.2,28.52,WSW,248,6.3,10.1,65,0.00,,,0.00,VWS V14.01,2013-10-19 14:05:00,
2013-10-19 09:10:00,38.1,26.6,28.52,WSW,248,6.0,12.5,63,0.00,,,0.00,VWS V14.01,2013-10-19 14:10:00,
2013-10-19 09:15:00,38.5,26.6,28.52,WSW,248,5.4,12.1,62,0.00,,,0.00,VWS V14.01,2013-10-19 14:15:00,
2013-10-19 09:20:00,38.7,26.8,28.52,WSW,248,8.5,10.1,62,0.00,,,0.00,VWS V14.01,2013-10-19 14:20:00,
2013-10-19 09:25:00,39.0,27.5,28.52,WSW,248,6.3,11.0,63,0.00,,,0.00,VWS V14.01,2013-10-19 14:25:00,
2013-10-19 09:30:00,39.4,27.9,28.52,West,270,6.0,10.5,63,0.00,,,0.00,VWS V14.01,2013-10-19 14:30:00,
2013-10-19 09:35:00,39.9,26.8,28.52,WSW,248,7.4,12.5,59,0.00,,,0.00,VWS V14.01,2013-10-19 14:35:00,
2013-10-19 09:40:00,40.3,27.5,28.52,WSW,248,6.5,9.6,60,0.00,,,0.00,VWS V14.01,2013-10-19 14:40:00,
2013-10-19 09:45:00,39.9,27.2,28.52,West,270,7.2,8.7,60,0.00,,,0.00,VWS V14.01,2013-10-19 14:45:00,
2013-10-19 09:50:00,39.7,28.2,28.52,WNW,292,6.5,11.0,63,0.00,,,0.00,VWS V14.01,2013-10-19 14:50:00,
2013-10-19 09:55:00,39.9,29.1,28.52,WSW,248,5.6,12.3,65,0.00,,,0.00,VWS V14.01,2013-10-19 14:55:00,
2013-10-19 10:00:00,39.9,28.8,28.52,WNW,292,6.3,11.2,64,0.00,,,0.00,VWS V14.01,2013-10-19 15:00:00,
2013-10-19 10:05:00,39.9,29.5,28.52,WSW,248,8.1,10.1,66,0.00,,,0.00,VWS V14.01,2013-10-19 15:05:00,
2013-10-19 10:10:00,39.9,30.9,28.52,WSW,248,9.8,9.8,70,0.00,,,0.00,VWS V14.01,2013-10-19 15:10:00,
2013-10-19 10:15:00,40.3,30.9,28.52,WSW,248,6.5,9.8,69,0.00,,,0.00,VWS V14.01,2013-10-19 15:15:00,
2013-10-19 10:20:00,40.8,31.8,28.52,WSW,248,7.6,10.1,70,0.00,,,0.00,VWS V14.01,2013-10-19 15:20:00,
2013-10-19 10:25:00,41.2,30.3,28.52,West,270,6.7,8.7,65,0.00,,,0.00,VWS V14.01,2013-10-19 15:25:00,
2013-10-19 10:30:00,41.7,30.8,28.52,WNW,292,6.0,10.1,65,0.00,,,0.00,VWS V14.01,2013-10-19 15:30:00,
2013-10-19 10:35:00,41.9,29.5,28.50,West,270,7.6,9.0,61,0.00,,,0.00,VWS V14.01,2013-10-19 15:35:00,
2013-10-19 10:40:00,42.1,28.8,28.50,WSW,248,7.6,9.8,59,0.00,,,0.00,VWS V14.01,2013-10-19 15:40:00,
2013-10-19 10:45:00,42.3,28.5,28.50,WSW,248,5.8,8.7,58,0.00,,,0.00,VWS V14.01,2013-10-19 15:45:00,
2013-10-19 10:50:00,42.6,28.9,28.50,SW,225,7.6,10.5,58,0.00,,,0.00,VWS V14.01,2013-10-19 15:50:00,
2013-10-19 10:55:00,42.8,29.9,28.50,WSW,248,5.6,9.4,60,0.00,,,0.00,VWS V14.01,2013-10-19 15:55:00,
2013-10-19 11:00:00,43.2,29.8,28.50,West,270,5.4,9.6,59,0.00,,,0.00,VWS V14.01,2013-10-19 16:00:00,
2013-10-19 11:05:00,43.0,28.8,28.50,WSW,248,6.3,10.5,57,0.00,,,0.00,VWS V14.01,2013-10-19 16:05:00,
2013-10-19 11:10:00,42.8,28.2,28.50,WSW,248,8.5,11.9,56,0.00,,,0.00,VWS V14.01,2013-10-19 16:10:00,
2013-10-19 11:15:00,42.8,29.9,28.50,WSW,248,10.1,10.5,60,0.00,,,0.00,VWS V14.01,2013-10-19 16:15:00,
2013-10-19 11:20:00,42.3,27.7,28.50,WSW,248,8.7,13.0,56,0.00,,,0.00,VWS V14.01,2013-10-19 16:20:00,
2013-10-19 11:25:00,42.1,28.8,28.50,West,270,7.6,10.5,59,0.00,,,0.00,VWS V14.01,2013-10-19 16:25:00,
2013-10-19 11:30:00,42.3,29.8,28.50,WSW,248,5.6,8.7,61,0.00,,,0.00,VWS V14.01,2013-10-19 16:30:00,
2013-10-19 11:35:00,42.8,30.3,28.50,WSW,248,5.8,11.0,61,0.00,,,0.00,VWS V14.01,2013-10-19 16:35:00,
2013-10-19 11:40:00,43.5,31.8,28.50,WSW,248,3.6,8.7,63,0.00,,,0.00,VWS V14.01,2013-10-19 16:40:00,
2013-10-19 11:45:00,44.2,31.2,28.50,WSW,248,8.1,8.5,60,0.00,,,0.00,VWS V14.01,2013-10-19 16:45:00,
2013-10-19 11:50:00,46.8,31.9,28.50,WSW,248,8.7,10.1,56,0.00,,,0.00,VWS V14.01,2013-10-19 16:50:00,
2013-10-19 11:55:00,48.2,31.4,28.50,WSW,248,12.1,12.1,52,0.00,,,0.00,VWS V14.01,2013-10-19 16:55:00,
2013-10-19 12:00:00,48.0,29.3,28.50,SW,225,8.1,12.1,48,0.00,,,0.00,VWS V14.01,2013-10-19 17:00:00,
2013-10-19 12:05:00,47.1,29.5,28.50,WSW,248,8.5,10.3,50,0.00,,,0.00,VWS V14.01,2013-10-19 17:05:00,
2013-10-19 12:10:00,46.8,29.1,28.50,WSW,248,7.8,10.7,50,0.00,,,0.00,VWS V14.01,2013-10-19 17:10:00,
2013-10-19 12:15:00,47.1,30.9,28.50,SW,225,10.1,11.9,53,0.00,,,0.00,VWS V14.01,2013-10-19 17:15:00,
2013-10-19 12:20:00,47.5,30.8,28.50,SW,225,11.0,13.2,52,0.00,,,0.00,VWS V14.01,2013-10-19 17:20:00,
2013-10-19 12:25:00,46.6,28.5,28.50,SW,225,13.0,15.4,49,0.00,,,0.00,VWS V14.01,2013-10-19 17:25:00,
2013-10-19 12:30:00,47.1,29.9,28.50,WSW,248,10.7,13.2,51,0.00,,,0.00,VWS V14.01,2013-10-19 17:30:00,
2013-10-19 12:35:00,46.8,30.1,28.50,SW,225,8.7,15.4,52,0.00,,,0.00,VWS V14.01,2013-10-19 17:35:00,
2013-10-19 12:40:00,46.9,29.3,28.50,WSW,248,8.7,15.4,50,0.00,,,0.00,VWS V14.01,2013-10-19 17:40:00,
2013-10-19 12:45:00,47.3,29.1,28.50,WSW,248,11.9,12.3,49,0.00,,,0.00,VWS V14.01,2013-10-19 17:45:00,
2013-10-19 12:50:00,47.5,29.8,28.50,WSW,248,10.3,12.8,50,0.00,,,0.00,VWS V14.01,2013-10-19 17:50:00,
2013-10-19 12:55:00,48.2,30.9,28.50,WSW,248,10.1,13.6,51,0.00,,,0.00,VWS V14.01,2013-10-19 17:55:00,
2013-10-19 13:00:00,50.0,30.6,28.50,SW,225,8.1,12.3,47,0.00,,,0.00,VWS V14.01,2013-10-19 18:00:00,
2013-10-19 13:05:00,50.5,29.5,28.50,WSW,248,8.7,13.0,44,0.00,,,0.00,VWS V14.01,2013-10-19 18:05:00,
2013-10-19 13:10:00,51.6,29.3,28.50,WSW,248,10.5,13.2,42,0.00,,,0.00,VWS V14.01,2013-10-19 18:10:00,
2013-10-19 13:15:00,52.0,28.4,28.50,WSW,248,10.3,14.3,40,0.00,,,0.00,VWS V14.01,2013-10-19 18:15:00,
2013-10-19 13:20:00,52.9,29.2,28.50,West,270,7.4,14.5,40,0.00,,,0.00,VWS V14.01,2013-10-19 18:20:00,
2013-10-19 13:25:00,53.4,29.1,28.50,SW,225,12.8,17.5,39,0.00,,,0.00,VWS V14.01,2013-10-19 18:25:00,
2013-10-19 13:30:00,53.4,28.5,28.50,WNW,292,10.5,20.8,38,0.00,,,0.00,VWS V14.01,2013-10-19 18:30:00,
2013-10-19 13:35:00,54.3,28.6,28.47,WNW,292,10.1,13.2,37,0.00,,,0.00,VWS V14.01,2013-10-19 18:35:00,
2013-10-19 13:40:00,54.5,28.8,28.47,WSW,248,8.1,15.2,37,0.00,,,0.00,VWS V14.01,2013-10-19 18:40:00,
2013-10-19 13:45:00,55.4,28.9,28.47,West,270,6.3,13.4,36,0.00,,,0.00,VWS V14.01,2013-10-19 18:45:00,
2013-10-19 13:50:00,55.4,28.2,28.47,WSW,248,13.2,14.5,35,0.00,,,0.00,VWS V14.01,2013-10-19 18:50:00,
2013-10-19 13:55:00,55.4,28.2,28.47,WSW,248,10.7,15.4,35,0.00,,,0.00,VWS V14.01,2013-10-19 18:55:00,
2013-10-19 14:00:00,56.5,29.2,28.47,WSW,248,12.8,14.8,35,0.00,,,0.00,VWS V14.01,2013-10-19 19:00:00,
2013-10-19 14:05:00,55.8,28.5,28.47,West,270,13.6,17.7,35,0.00,,,0.00,VWS V14.01,2013-10-19 19:05:00,
2013-10-19 14:10:00,55.9,28.0,28.47,West,270,9.2,15.4,34,0.00,,,0.00,VWS V14.01,2013-10-19 19:10:00,
2013-10-19 14:15:00,56.1,28.1,28.47,West,270,12.3,19.5,34,0.00,,,0.00,VWS V14.01,2013-10-19 19:15:00,
2013-10-19 14:20:00,56.7,28.6,28.47,WNW,292,14.8,16.3,34,0.00,,,0.00,VWS V14.01,2013-10-19 19:20:00,
2013-10-19 14:25:00,56.7,27.2,28.47,WNW,292,11.0,17.7,32,0.00,,,0.00,VWS V14.01,2013-10-19 19:25:00,
2013-10-19 14:30:00,56.3,26.8,28.47,WNW,292,12.8,23.7,32,0.00,,,0.00,VWS V14.01,2013-10-19 19:30:00,
2013-10-19 14:35:00,56.7,27.2,28.47,West,270,10.3,13.2,32,0.00,,,0.00,VWS V14.01,2013-10-19 19:35:00,
2013-10-19 14:40:00,57.0,27.5,28.47,WNW,292,10.3,15.4,32,0.00,,,0.00,VWS V14.01,2013-10-19 19:40:00,
2013-10-19 14:45:00,57.0,27.5,28.47,WNW,292,12.3,15.4,32,0.00,,,0.00,VWS V14.01,2013-10-19 19:45:00,
2013-10-19 14:50:00,57.2,25.2,28.47,WNW,292,14.1,21.5,29,0.00,,,0.00,VWS V14.01,2013-10-19 19:50:00,
2013-10-19 14:55:00,57.6,25.6,28.47,WNW,292,13.4,20.1,29,0.00,,,0.00,VWS V14.01,2013-10-19 19:55:00,
2013-10-19 15:00:00,57.6,25.6,28.47,WNW,292,14.3,17.2,29,0.00,,,0.00,VWS V14.01,2013-10-19 20:00:00,
2013-10-19 15:05:00,57.9,25.9,28.47,WNW,292,16.1,17.2,29,0.00,,,0.00,VWS V14.01,2013-10-19 20:05:00,
2013-10-19 15:10:00,57.9,25.9,28.47,West,270,17.2,17.7,29,0.00,,,0.00,VWS V14.01,2013-10-19 20:10:00,
2013-10-19 15:15:00,57.4,25.4,28.47,WNW,292,10.5,17.2,29,0.00,,,0.00,VWS V14.01,2013-10-19 20:15:00,
2013-10-19 15:20:00,55.9,24.2,28.47,WNW,292,10.1,16.6,29,0.00,,,0.00,VWS V14.01,2013-10-19 20:20:00,
2013-10-19 15:25:00,56.8,25.8,28.47,WNW,292,13.2,15.4,30,0.00,,,0.00,VWS V14.01,2013-10-19 20:25:00,
2013-10-19 15:30:00,56.5,23.8,28.47,West,270,13.4,19.9,28,0.00,,,0.00,VWS V14.01,2013-10-19 20:30:00,
2013-10-19 15:35:00,55.4,23.7,28.47,WNW,292,12.5,20.4,29,0.00,,,0.00,VWS V14.01,2013-10-19 20:35:00,
2013-10-19 15:40:00,54.7,23.1,28.47,West,270,10.1,19.7,29,0.00,,,0.00,VWS V14.01,2013-10-19 20:40:00,
2013-10-19 15:45:00,54.7,23.1,28.47,WNW,292,10.7,14.8,29,0.00,,,0.00,VWS V14.01,2013-10-19 20:45:00,
2013-10-19 15:50:00,54.7,23.1,28.47,WNW,292,12.3,16.1,29,0.00,,,0.00,VWS V14.01,2013-10-19 20:50:00,
2013-10-19 15:55:00,56.1,23.5,28.47,WNW,292,11.2,18.1,28,0.00,,,0.00,VWS V14.01,2013-10-19 20:55:00,
2013-10-19 16:00:00,55.4,22.9,28.47,WNW,292,14.8,18.8,28,0.00,,,0.00,VWS V14.01,2013-10-19 21:00:00,
2013-10-19 16:05:00,54.9,22.4,28.47,WNW,292,11.9,15.9,28,0.00,,,0.00,VWS V14.01,2013-10-19 21:05:00,
2013-10-19 16:10:00,55.9,23.3,28.47,NW,315,10.5,19.2,28,0.00,,,0.00,VWS V14.01,2013-10-19 21:10:00,
2013-10-19 16:15:00,56.5,23.8,28.47,WNW,292,7.6,16.1,28,0.00,,,0.00,VWS V14.01,2013-10-19 21:15:00,
2013-10-19 16:20:00,56.3,23.6,28.47,WNW,292,8.7,13.9,28,0.00,,,0.00,VWS V14.01,2013-10-19 21:20:00,
2013-10-19 16:25:00,56.7,23.1,28.47,WNW,292,17.5,18.6,27,0.00,,,0.00,VWS V14.01,2013-10-19 21:25:00,
2013-10-19 16:30:00,55.9,22.5,28.47,WNW,292,17.7,19.9,27,0.00,,,0.00,VWS V14.01,2013-10-19 21:30:00,
2013-10-19 16:35:00,55.2,22.7,28.47,WNW,292,19.9,22.2,28,0.00,,,0.00,VWS V14.01,2013-10-19 21:35:00,
2013-10-19 16:40:00,54.9,22.4,28.47,WNW,292,15.2,22.6,28,0.00,,,0.00,VWS V14.01,2013-10-19 21:40:00,
2013-10-19 16:45:00,55.0,22.5,28.47,WNW,292,14.8,19.0,28,0.00,,,0.00,VWS V14.01,2013-10-19 21:45:00,
2013-10-19 16:50:00,54.9,22.4,28.47,WNW,292,14.1,19.0,28,0.00,,,0.00,VWS V14.01,2013-10-19 21:50:00,
2013-10-19 16:55:00,54.9,22.4,28.47,NNW,338,10.7,20.4,28,0.00,,,0.00,VWS V14.01,2013-10-19 21:55:00,
2013-10-19 17:00:00,54.5,22.1,28.47,WNW,292,14.5,19.0,28,0.00,,,0.00,VWS V14.01,2013-10-19 22:00:00,
2013-10-19 17:05:00,54.5,22.1,28.50,NW,315,11.0,17.7,28,0.00,,,0.00,VWS V14.01,2013-10-19 22:05:00,
2013-10-19 17:10:00,54.3,21.9,28.50,WNW,292,17.7,17.7,28,0.00,,,0.00,VWS V14.01,2013-10-19 22:10:00,
2013-10-19 17:15:00,54.7,22.2,28.50,WNW,292,12.8,19.2,28,0.00,,,0.00,VWS V14.01,2013-10-19 22:15:00,
2013-10-19 17:20:00,54.9,22.4,28.50,WNW,292,13.0,19.7,28,0.00,,,0.00,VWS V14.01,2013-10-19 22:20:00,
2013-10-19 17:25:00,54.5,22.1,28.50,WNW,292,13.0,19.9,28,0.00,,,0.00,VWS V14.01,2013-10-19 22:25:00,
2013-10-19 17:30:00,54.1,21.8,28.50,WNW,292,17.0,18.1,28,0.00,,,0.00,VWS V14.01,2013-10-19 22:30:00,
2013-10-19 17:35:00,54.3,21.9,28.50,WNW,292,12.1,17.2,28,0.00,,,0.00,VWS V14.01,2013-10-19 22:35:00,
2013-10-19 17:40:00,53.4,21.1,28.50,WNW,292,13.4,17.5,28,0.00,,,0.00,VWS V14.01,2013-10-19 22:40:00,
2013-10-19 17:45:00,52.9,21.5,28.50,NW,315,10.7,17.2,29,0.00,,,0.00,VWS V14.01,2013-10-19 22:45:00,
2013-10-19 17:50:00,52.3,21.0,28.50,WNW,292,10.7,13.0,29,0.00,,,0.00,VWS V14.01,2013-10-19 22:50:00,
2013-10-19 17:55:00,51.8,20.6,28.50,WNW,292,13.0,16.3,29,0.00,,,0.00,VWS V14.01,2013-10-19 22:55:00,
2013-10-19 18:00:00,51.8,20.6,28.50,WNW,292,11.4,15.4,29,0.00,,,0.00,VWS V14.01,2013-10-19 23:00:00,
2013-10-19 18:05:00,51.4,21.1,28.50,WNW,292,8.1,12.1,30,0.00,,,0.00,VWS V14.01,2013-10-19 23:05:00,
2013-10-19 18:10:00,50.9,20.6,28.50,WNW,292,12.5,12.8,30,0.00,,,0.00,VWS V14.01,2013-10-19 23:10:00,
2013-10-19 18:15:00,50.5,20.3,28.50,WNW,292,7.8,12.5,30,0.00,,,0.00,VWS V14.01,2013-10-19 23:15:00,
2013-10-19 18:20:00,50.2,20.0,28.50,WNW,292,9.8,11.9,30,0.00,,,0.00,VWS V14.01,2013-10-19 23:20:00,
2013-10-19 18:25:00,50.0,19.8,28.50,WNW,292,10.3,15.2,30,0.00,,,0.00,VWS V14.01,2013-10-19 23:25:00,
2013-10-19 18:30:00,50.0,19.8,28.50,WNW,292,12.8,13.0,30,0.00,,,0.00,VWS V14.01,2013-10-19 23:30:00,
2013-10-19 18:35:00,49.8,20.4,28.50,WNW,292,12.1,13.4,31,0.00,,,0.00,VWS V14.01,2013-10-19 23:35:00,
2013-10-19 18:40:00,49.8,20.4,28.50,WNW,292,12.3,16.3,31,0.00,,,0.00,VWS V14.01,2013-10-19 23:40:00,
2013-10-19 18:45:00,49.8,20.4,28.50,WNW,292,10.5,13.2,31,0.00,,,0.00,VWS V14.01,2013-10-19 23:45:00,
2013-10-19 18:50:00,49.3,19.9,28.50,WNW,292,5.4,12.5,31,0.00,,,0.00,VWS V14.01,2013-10-19 23:50:00,
2013-10-19 18:55:00,49.1,19.8,28.50,WNW,292,11.0,13.2,31,0.00,,,0.00,VWS V14.01,2013-10-19 23:55:00,
2013-10-19 19:00:00,49.1,19.8,28.50,WNW,292,5.6,13.2,31,0.00,,,0.00,VWS V14.01,2013-10-20 00:00:00,
2013-10-19 19:05:00,48.7,19.5,28.50,WNW,292,6.0,12.1,31,0.00,,,0.00,VWS V14.01,2013-10-20 00:05:00,
2013-10-19 19:10:00,50.9,20.6,28.50,WNW,292,12.5,12.8,30,0.00,,,0.00,VWS V14.01,2013-10-20 00:10:00,
2013-10-19 19:15:00,50.5,20.3,28.50,WNW,292,7.8,12.5,30,0.00,,,0.00,VWS V14.01,2013-10-20 00:15:00,
2013-10-19 19:20:00,50.2,20.0,28.50,WNW,292,9.8,11.9,30,0.00,,,0.00,VWS V14.01,2013-10-20 00:20:00,
2013-10-19 19:25:00,50.0,19.8,28.50,WNW,292,10.3,15.2,30,0.00,,,0.00,VWS V14.01,2013-10-20 00:25:00,
2013-10-19 19:30:00,50.0,19.8,28.50,WNW,292,12.8,13.0,30,0.00,,,0.00,VWS V14.01,2013-10-20 00:30:00,
2013-10-19 19:35:00,49.8,20.4,28.50,WNW,292,12.1,13.4,31,0.00,,,0.00,VWS V14.01,2013-10-20 00:35:00,
2013-10-19 19:40:00,49.8,20.4,28.50,WNW,292,12.3,16.3,31,0.00,,,0.00,VWS V14.01,2013-10-20 00:40:00,
2013-10-19 19:45:00,49.8,20.4,28.50,WNW,292,10.5,13.2,31,0.00,,,0.00,VWS V14.01,2013-10-20 00:45:00,
2013-10-19 19:50:00,49.3,19.9,28.50,WNW,292,5.4,12.5,31,0.00,,,0.00,VWS V14.01,2013-10-20 00:50:00,
2013-10-19 19:55:00,49.1,19.8,28.50,WNW,292,11.0,13.2,31,0.00,,,0.00,VWS V14.01,2013-10-20 00:55:00,
2013-10-19 20:00:00,49.1,19.8,28.50,WNW,292,5.6,13.2,31,0.00,,,0.00,VWS V14.01,2013-10-20 01:00:00,
2013-10-19 20:05:00,48.7,19.5,28.50,WNW,292,6.0,12.1,31,0.00,,,0.00,VWS V14.01,2013-10-20 01:05:00,